{"data":{"norad_id":61720,"intl_designator":"2024-196P","name":"STARLINK-32322","alt_names":[],"object_type":"PAYLOAD","status":"ACTIVE","operator":null,"country":"US","launch_date":"2024-10-30","launch_site_code":"AFETR","launch_vehicle":null,"mission":null,"orbit_class":"UNKNOWN","rcs_meters":null,"size_class":null,"mass_kg":null,"dimensions":null,"purposes":["comms"],"wikipedia_slug":null,"has_3d_model":false,"image_url":null,"decayed_at":null,"tle_current":{"epoch":"2026-09-21T17:40:10.809408Z","epoch_age_seconds":82085,"freshness":"FRESH","line1":"1 61720U 24196P   26264.73623622  .00005673  00000+0  17889-3 0  9995","line2":"2 61720  53.1605 267.7877 0000686 106.1818 253.9260 15.34400752107216","mean_motion":15.34400752,"eccentricity":6.86e-5,"inclination_deg":53.1605,"raan_deg":267.7877,"arg_perigee_deg":106.1818,"mean_anomaly_deg":253.926,"bstar":0.00017889,"rev_number":10721,"period_min":93.847712087148,"perigee_km":462.23172361839,"apogee_km":463.17028659269,"semimajor_km":6840.8380051055,"source":"CELESTRAK","updated_at":"2026-09-22T09:00:49.437411Z"}}}